{"data":{"norad_id":43234,"intl_designator":"2018-024D","name":"O3B FM13","alt_names":[],"object_type":"PAYLOAD","status":"ACTIVE","operator":null,"country":"O3B","launch_date":"2018-03-09","launch_site_code":"FRGUI","launch_vehicle":null,"mission":null,"orbit_class":"UNKNOWN","rcs_meters":null,"size_class":null,"mass_kg":null,"dimensions":null,"purposes":["comms"],"wikipedia_slug":null,"has_3d_model":false,"image_url":null,"decayed_at":null,"tle_current":{"epoch":"2026-05-19T01:37:37.958880Z","epoch_age_seconds":591185,"freshness":"STALE","line1":"1 43234U 18024D   26139.06780045 -.00000019  00000+0  00000+0 0  9991","line2":"2 43234   0.0490 326.2733 0003182  43.4287 350.3051  5.00115546149603","mean_motion":5.00115546,"eccentricity":0.0003182,"inclination_deg":0.049,"raan_deg":326.2733,"arg_perigee_deg":43.4287,"mean_anomaly_deg":350.3051,"bstar":0,"rev_number":14960,"period_min":287.93346088066,"perigee_km":8061.2932434134,"apogee_km":8070.4854217715,"semimajor_km":14444.026332592,"source":"CELESTRAK","updated_at":"2026-05-25T13:38:14.514405Z"}}}